<?xml version="1.0" encoding="UTF-8" standalone="no" ?>
<gpx xmlns="http://www.topografix.com/GPX/1/1" xmlns:xsi="http://www.w3.org/2001/XMLSchema-instance" xsi:schemaLocation="http://www.topografix.com/GPX/1/1 http://www.topografix.com/GPX/1/1/gpx.xsd" version="1.1" creator="VisuGPX - https://www.visugpx.com">
  <metadata>
    <name>barreges -col du tourmalet</name>
  </metadata>
  <trk>
    <name><![CDATA[barreges -col du tourmalet_1]]></name>
    <extensions>
      <line xmlns="http://www.topografix.com/GPX/gpx_style/0/2">
        <color>0000FF</color>
        <width>4</width>
      </line>
    </extensions>
    <trkseg>
      <trkpt lat="42.89617" lon="0.06286">
        <ele>1212.4</ele>
        <time>2024-07-30T22:00:00.000Z</time>
      </trkpt>
      <trkpt lat="42.89624" lon="0.0633">
        <ele>1214.9</ele>
        <time>2024-07-30T22:00:08.111Z</time>
      </trkpt>
      <trkpt lat="42.89629" lon="0.0635">
        <ele>1215.3</ele>
        <time>2024-07-30T22:00:11.342Z</time>
      </trkpt>
      <trkpt lat="42.89757" lon="0.06703">
        <ele>1232.7</ele>
        <time>2024-07-30T22:01:18.705Z</time>
      </trkpt>
      <trkpt lat="42.89766" lon="0.06732">
        <ele>1234.1</ele>
        <time>2024-07-30T22:01:24.099Z</time>
      </trkpt>
      <trkpt lat="42.89773" lon="0.06764">
        <ele>1235.8</ele>
        <time>2024-07-30T22:01:29.988Z</time>
      </trkpt>
      <trkpt lat="42.89763" lon="0.06768">
        <ele>1237.9</ele>
        <time>2024-07-30T22:01:34.045Z</time>
      </trkpt>
      <trkpt lat="42.8976" lon="0.06767">
        <ele>1238.3</ele>
        <time>2024-07-30T22:01:34.962Z</time>
      </trkpt>
      <trkpt lat="42.89745" lon="0.06747">
        <ele>1239.1</ele>
        <time>2024-07-30T22:01:39.514Z</time>
      </trkpt>
      <trkpt lat="42.89737" lon="0.06742">
        <ele>1242.3</ele>
        <time>2024-07-30T22:01:46.173Z</time>
      </trkpt>
      <trkpt lat="42.89733" lon="0.06742">
        <ele>1244.2</ele>
        <time>2024-07-30T22:01:50.216Z</time>
      </trkpt>
      <trkpt lat="42.89732" lon="0.06752">
        <ele>1246.5</ele>
        <time>2024-07-30T22:01:54.721Z</time>
      </trkpt>
      <trkpt lat="42.89734" lon="0.06767">
        <ele>1248.5</ele>
        <time>2024-07-30T22:01:58.707Z</time>
      </trkpt>
      <trkpt lat="42.89753" lon="0.06819">
        <ele>1250.2</ele>
        <time>2024-07-30T22:02:08.004Z</time>
      </trkpt>
      <trkpt lat="42.89761" lon="0.06852">
        <ele>1253.8</ele>
        <time>2024-07-30T22:02:15.894Z</time>
      </trkpt>
      <trkpt lat="42.89797" lon="0.0706">
        <ele>1276.4</ele>
        <time>2024-07-30T22:03:04.942Z</time>
      </trkpt>
      <trkpt lat="42.89804" lon="0.07143">
        <ele>1291.4</ele>
        <time>2024-07-30T22:03:33.309Z</time>
      </trkpt>
      <trkpt lat="42.89814" lon="0.07232">
        <ele>1306.2</ele>
        <time>2024-07-30T22:04:01.427Z</time>
      </trkpt>
      <trkpt lat="42.89811" lon="0.07272">
        <ele>1310.4</ele>
        <time>2024-07-30T22:04:10.595Z</time>
      </trkpt>
      <trkpt lat="42.89809" lon="0.0738">
        <ele>1320.1</ele>
        <time>2024-07-30T22:04:33.500Z</time>
      </trkpt>
      <trkpt lat="42.89806" lon="0.07401">
        <ele>1323.6</ele>
        <time>2024-07-30T22:04:40.153Z</time>
      </trkpt>
      <trkpt lat="42.89809" lon="0.07416">
        <ele>1322.7</ele>
        <time>2024-07-30T22:04:42.072Z</time>
      </trkpt>
      <trkpt lat="42.89804" lon="0.07482">
        <ele>1330.6</ele>
        <time>2024-07-30T22:04:58.364Z</time>
      </trkpt>
      <trkpt lat="42.89801" lon="0.07577">
        <ele>1339.2</ele>
        <time>2024-07-30T22:05:18.590Z</time>
      </trkpt>
      <trkpt lat="42.89801" lon="0.07668">
        <ele>1348.3</ele>
        <time>2024-07-30T22:05:38.882Z</time>
      </trkpt>
      <trkpt lat="42.89803" lon="0.07719">
        <ele>1354.7</ele>
        <time>2024-07-30T22:05:51.834Z</time>
      </trkpt>
      <trkpt lat="42.89802" lon="0.07747">
        <ele>1359.2</ele>
        <time>2024-07-30T22:06:00.406Z</time>
      </trkpt>
      <trkpt lat="42.89805" lon="0.07764">
        <ele>1359.8</ele>
        <time>2024-07-30T22:06:03.267Z</time>
      </trkpt>
      <trkpt lat="42.89797" lon="0.07794">
        <ele>1367.3</ele>
        <time>2024-07-30T22:06:18.099Z</time>
      </trkpt>
      <trkpt lat="42.89773" lon="0.07862">
        <ele>1382.5</ele>
        <time>2024-07-30T22:06:47.072Z</time>
      </trkpt>
      <trkpt lat="42.89774" lon="0.07881">
        <ele>1385.4</ele>
        <time>2024-07-30T22:06:52.641Z</time>
      </trkpt>
      <trkpt lat="42.89788" lon="0.07888">
        <ele>1384</ele>
        <time>2024-07-30T22:06:55.153Z</time>
      </trkpt>
      <trkpt lat="42.89826" lon="0.07898">
        <ele>1379.2</ele>
        <time>2024-07-30T22:07:01.672Z</time>
      </trkpt>
      <trkpt lat="42.89844" lon="0.07905">
        <ele>1376.3</ele>
        <time>2024-07-30T22:07:04.825Z</time>
      </trkpt>
      <trkpt lat="42.89886" lon="0.07928">
        <ele>1370.5</ele>
        <time>2024-07-30T22:07:12.448Z</time>
      </trkpt>
      <trkpt lat="42.89925" lon="0.07944">
        <ele>1367.1</ele>
        <time>2024-07-30T22:07:19.308Z</time>
      </trkpt>
      <trkpt lat="42.89964" lon="0.07965">
        <ele>1362.2</ele>
        <time>2024-07-30T22:07:26.371Z</time>
      </trkpt>
      <trkpt lat="42.89981" lon="0.0798">
        <ele>1358.7</ele>
        <time>2024-07-30T22:07:29.781Z</time>
      </trkpt>
      <trkpt lat="42.90006" lon="0.0802">
        <ele>1356.9</ele>
        <time>2024-07-30T22:07:36.269Z</time>
      </trkpt>
      <trkpt lat="42.90015" lon="0.0804">
        <ele>1357.4</ele>
        <time>2024-07-30T22:07:39.895Z</time>
      </trkpt>
      <trkpt lat="42.90037" lon="0.08113">
        <ele>1367.2</ele>
        <time>2024-07-30T22:07:59.793Z</time>
      </trkpt>
      <trkpt lat="42.90044" lon="0.08171">
        <ele>1376.4</ele>
        <time>2024-07-30T22:08:17.380Z</time>
      </trkpt>
      <trkpt lat="42.90066" lon="0.0824">
        <ele>1378.8</ele>
        <time>2024-07-30T22:08:29.560Z</time>
      </trkpt>
      <trkpt lat="42.90088" lon="0.0832">
        <ele>1386.6</ele>
        <time>2024-07-30T22:08:47.810Z</time>
      </trkpt>
      <trkpt lat="42.901" lon="0.08356">
        <ele>1388.3</ele>
        <time>2024-07-30T22:08:54.538Z</time>
      </trkpt>
      <trkpt lat="42.90111" lon="0.0838">
        <ele>1386.5</ele>
        <time>2024-07-30T22:08:58.031Z</time>
      </trkpt>
      <trkpt lat="42.90114" lon="0.08391">
        <ele>1386.7</ele>
        <time>2024-07-30T22:08:59.811Z</time>
      </trkpt>
      <trkpt lat="42.90129" lon="0.08466">
        <ele>1390.3</ele>
        <time>2024-07-30T22:09:13.236Z</time>
      </trkpt>
      <trkpt lat="42.90145" lon="0.08522">
        <ele>1389.3</ele>
        <time>2024-07-30T22:09:21.149Z</time>
      </trkpt>
      <trkpt lat="42.90152" lon="0.08555">
        <ele>1388.9</ele>
        <time>2024-07-30T22:09:25.764Z</time>
      </trkpt>
      <trkpt lat="42.90158" lon="0.08596">
        <ele>1391.9</ele>
        <time>2024-07-30T22:09:33.891Z</time>
      </trkpt>
      <trkpt lat="42.90175" lon="0.08675">
        <ele>1403.1</ele>
        <time>2024-07-30T22:09:55.972Z</time>
      </trkpt>
      <trkpt lat="42.90187" lon="0.08722">
        <ele>1407.4</ele>
        <time>2024-07-30T22:10:06.351Z</time>
      </trkpt>
      <trkpt lat="42.90206" lon="0.0877">
        <ele>1399.6</ele>
        <time>2024-07-30T22:10:13.084Z</time>
      </trkpt>
      <trkpt lat="42.90231" lon="0.08845">
        <ele>1391.4</ele>
        <time>2024-07-30T22:10:23.252Z</time>
      </trkpt>
      <trkpt lat="42.90236" lon="0.08852">
        <ele>1389.9</ele>
        <time>2024-07-30T22:10:24.458Z</time>
      </trkpt>
      <trkpt lat="42.90272" lon="0.08996">
        <ele>1390.9</ele>
        <time>2024-07-30T22:10:46.520Z</time>
      </trkpt>
      <trkpt lat="42.90275" lon="0.09021">
        <ele>1391.7</ele>
        <time>2024-07-30T22:10:50.615Z</time>
      </trkpt>
      <trkpt lat="42.90268" lon="0.09099">
        <ele>1401.5</ele>
        <time>2024-07-30T22:11:10.480Z</time>
      </trkpt>
      <trkpt lat="42.90268" lon="0.09122">
        <ele>1403.5</ele>
        <time>2024-07-30T22:11:15.289Z</time>
      </trkpt>
      <trkpt lat="42.90271" lon="0.09146">
        <ele>1404.3</ele>
        <time>2024-07-30T22:11:19.247Z</time>
        <extensions>
          <visugpx:TrkExtension xmlns:visugpx="https://www.visugpx.com/editgpx/">
            <visugpx:node>1</visugpx:node>
            </visugpx:TrkExtension>
        </extensions>
      </trkpt>
      <trkpt lat="42.903" lon="0.09274">
        <ele>1409.9</ele>
        <time>2024-07-30T22:11:41.914Z</time>
      </trkpt>
      <trkpt lat="42.90322" lon="0.09385">
        <ele>1415.1</ele>
        <time>2024-07-30T22:12:01.672Z</time>
      </trkpt>
      <trkpt lat="42.90333" lon="0.09477">
        <ele>1415.3</ele>
        <time>2024-07-30T22:12:14.938Z</time>
      </trkpt>
      <trkpt lat="42.90338" lon="0.09715">
        <ele>1426.6</ele>
        <time>2024-07-30T22:12:56.267Z</time>
      </trkpt>
      <trkpt lat="42.90357" lon="0.09918">
        <ele>1437</ele>
        <time>2024-07-30T22:13:32.340Z</time>
      </trkpt>
      <trkpt lat="42.90361" lon="0.09978">
        <ele>1439.7</ele>
        <time>2024-07-30T22:13:42.673Z</time>
      </trkpt>
      <trkpt lat="42.9036" lon="0.10006">
        <ele>1442.7</ele>
        <time>2024-07-30T22:13:49.148Z</time>
      </trkpt>
      <trkpt lat="42.90355" lon="0.10023">
        <ele>1444.8</ele>
        <time>2024-07-30T22:13:53.545Z</time>
      </trkpt>
      <trkpt lat="42.90351" lon="0.10031">
        <ele>1445.8</ele>
        <time>2024-07-30T22:13:55.740Z</time>
      </trkpt>
      <trkpt lat="42.90329" lon="0.10061">
        <ele>1448.3</ele>
        <time>2024-07-30T22:14:03.507Z</time>
      </trkpt>
      <trkpt lat="42.90322" lon="0.10081">
        <ele>1449.7</ele>
        <time>2024-07-30T22:14:07.644Z</time>
      </trkpt>
      <trkpt lat="42.90346" lon="0.10255">
        <ele>1454.9</ele>
        <time>2024-07-30T22:14:35.981Z</time>
      </trkpt>
      <trkpt lat="42.90358" lon="0.10298">
        <ele>1456.9</ele>
        <time>2024-07-30T22:14:43.825Z</time>
      </trkpt>
      <trkpt lat="42.90376" lon="0.10337">
        <ele>1460.3</ele>
        <time>2024-07-30T22:14:52.870Z</time>
      </trkpt>
      <trkpt lat="42.90395" lon="0.10358">
        <ele>1462.9</ele>
        <time>2024-07-30T22:14:59.550Z</time>
      </trkpt>
      <trkpt lat="42.90408" lon="0.10366">
        <ele>1464.4</ele>
        <time>2024-07-30T22:15:03.430Z</time>
      </trkpt>
      <trkpt lat="42.90426" lon="0.10365">
        <ele>1464.8</ele>
        <time>2024-07-30T22:15:07.147Z</time>
      </trkpt>
      <trkpt lat="42.90442" lon="0.10357">
        <ele>1464.6</ele>
        <time>2024-07-30T22:15:10.312Z</time>
      </trkpt>
      <trkpt lat="42.90448" lon="0.10352">
        <ele>1465.2</ele>
        <time>2024-07-30T22:15:12.098Z</time>
      </trkpt>
      <trkpt lat="42.90501" lon="0.10289">
        <ele>1472.1</ele>
        <time>2024-07-30T22:15:30.759Z</time>
      </trkpt>
      <trkpt lat="42.90516" lon="0.10269">
        <ele>1474.7</ele>
        <time>2024-07-30T22:15:36.859Z</time>
      </trkpt>
      <trkpt lat="42.90524" lon="0.10252">
        <ele>1476.1</ele>
        <time>2024-07-30T22:15:40.740Z</time>
      </trkpt>
      <trkpt lat="42.90529" lon="0.10229">
        <ele>1476.6</ele>
        <time>2024-07-30T22:15:44.439Z</time>
      </trkpt>
      <trkpt lat="42.90529" lon="0.10177">
        <ele>1477.9</ele>
        <time>2024-07-30T22:15:52.603Z</time>
      </trkpt>
      <trkpt lat="42.90534" lon="0.10165">
        <ele>1479.1</ele>
        <time>2024-07-30T22:15:55.489Z</time>
      </trkpt>
      <trkpt lat="42.90538" lon="0.1016">
        <ele>1479.8</ele>
        <time>2024-07-30T22:15:57.096Z</time>
      </trkpt>
      <trkpt lat="42.90542" lon="0.10158">
        <ele>1480.6</ele>
        <time>2024-07-30T22:15:58.668Z</time>
      </trkpt>
      <trkpt lat="42.90548" lon="0.10158">
        <ele>1481.8</ele>
        <time>2024-07-30T22:16:00.990Z</time>
      </trkpt>
      <trkpt lat="42.90552" lon="0.10161">
        <ele>1482.5</ele>
        <time>2024-07-30T22:16:02.468Z</time>
      </trkpt>
      <trkpt lat="42.90562" lon="0.10183">
        <ele>1485.9</ele>
        <time>2024-07-30T22:16:09.243Z</time>
      </trkpt>
      <trkpt lat="42.90566" lon="0.10203">
        <ele>1487.7</ele>
        <time>2024-07-30T22:16:13.575Z</time>
      </trkpt>
      <trkpt lat="42.90568" lon="0.10219">
        <ele>1488.9</ele>
        <time>2024-07-30T22:16:16.762Z</time>
      </trkpt>
      <trkpt lat="42.90568" lon="0.10259">
        <ele>1490.7</ele>
        <time>2024-07-30T22:16:23.628Z</time>
      </trkpt>
      <trkpt lat="42.90562" lon="0.10335">
        <ele>1494.7</ele>
        <time>2024-07-30T22:16:37.195Z</time>
      </trkpt>
      <trkpt lat="42.90557" lon="0.10372">
        <ele>1496.7</ele>
        <time>2024-07-30T22:16:43.899Z</time>
      </trkpt>
      <trkpt lat="42.9055" lon="0.10397">
        <ele>1497.6</ele>
        <time>2024-07-30T22:16:48.264Z</time>
      </trkpt>
      <trkpt lat="42.90526" lon="0.10435">
        <ele>1495.5</ele>
        <time>2024-07-30T22:16:54.455Z</time>
      </trkpt>
      <trkpt lat="42.90522" lon="0.10448">
        <ele>1495.5</ele>
        <time>2024-07-30T22:16:56.443Z</time>
      </trkpt>
      <trkpt lat="42.90523" lon="0.10454">
        <ele>1496.1</ele>
        <time>2024-07-30T22:16:57.799Z</time>
      </trkpt>
      <trkpt lat="42.90526" lon="0.10459">
        <ele>1497.4</ele>
        <time>2024-07-30T22:17:00.276Z</time>
      </trkpt>
      <trkpt lat="42.90529" lon="0.10463">
        <ele>1498.7</ele>
        <time>2024-07-30T22:17:02.820Z</time>
      </trkpt>
      <trkpt lat="42.90534" lon="0.10464">
        <ele>1500.1</ele>
        <time>2024-07-30T22:17:05.491Z</time>
      </trkpt>
      <trkpt lat="42.90539" lon="0.10463">
        <ele>1501.3</ele>
        <time>2024-07-30T22:17:07.762Z</time>
      </trkpt>
      <trkpt lat="42.9055" lon="0.10457">
        <ele>1503.4</ele>
        <time>2024-07-30T22:17:11.961Z</time>
      </trkpt>
      <trkpt lat="42.90555" lon="0.10451">
        <ele>1503.8</ele>
        <time>2024-07-30T22:17:13.514Z</time>
      </trkpt>
      <trkpt lat="42.90586" lon="0.10393">
        <ele>1509.8</ele>
        <time>2024-07-30T22:17:28.282Z</time>
      </trkpt>
      <trkpt lat="42.90599" lon="0.10362">
        <ele>1512.3</ele>
        <time>2024-07-30T22:17:35.166Z</time>
      </trkpt>
      <trkpt lat="42.90612" lon="0.10318">
        <ele>1513.8</ele>
        <time>2024-07-30T22:17:42.835Z</time>
      </trkpt>
      <trkpt lat="42.90633" lon="0.10267">
        <ele>1517.3</ele>
        <time>2024-07-30T22:17:53.586Z</time>
      </trkpt>
      <trkpt lat="42.90637" lon="0.10248">
        <ele>1517.1</ele>
        <time>2024-07-30T22:17:56.258Z</time>
      </trkpt>
      <trkpt lat="42.90637" lon="0.1021">
        <ele>1516.2</ele>
        <time>2024-07-30T22:18:01.119Z</time>
      </trkpt>
      <trkpt lat="42.9064" lon="0.10193">
        <ele>1517.3</ele>
        <time>2024-07-30T22:18:04.378Z</time>
      </trkpt>
      <trkpt lat="42.90643" lon="0.1019">
        <ele>1518.2</ele>
        <time>2024-07-30T22:18:06.081Z</time>
      </trkpt>
      <trkpt lat="42.90651" lon="0.10188">
        <ele>1520.8</ele>
        <time>2024-07-30T22:18:11.217Z</time>
      </trkpt>
      <trkpt lat="42.90655" lon="0.1019">
        <ele>1522.2</ele>
        <time>2024-07-30T22:18:14.010Z</time>
      </trkpt>
      <trkpt lat="42.90659" lon="0.10195">
        <ele>1523.5</ele>
        <time>2024-07-30T22:18:16.469Z</time>
      </trkpt>
      <trkpt lat="42.90661" lon="0.10202">
        <ele>1524.6</ele>
        <time>2024-07-30T22:18:18.598Z</time>
      </trkpt>
      <trkpt lat="42.90661" lon="0.1021">
        <ele>1525.1</ele>
        <time>2024-07-30T22:18:20.087Z</time>
      </trkpt>
      <trkpt lat="42.90652" lon="0.10275">
        <ele>1527.7</ele>
        <time>2024-07-30T22:18:31.153Z</time>
      </trkpt>
      <trkpt lat="42.90631" lon="0.10471">
        <ele>1539.2</ele>
        <time>2024-07-30T22:19:07.253Z</time>
      </trkpt>
      <trkpt lat="42.90631" lon="0.10549">
        <ele>1543</ele>
        <time>2024-07-30T22:19:20.869Z</time>
      </trkpt>
      <trkpt lat="42.90619" lon="0.10584">
        <ele>1544.8</ele>
        <time>2024-07-30T22:19:27.550Z</time>
      </trkpt>
      <trkpt lat="42.90617" lon="0.106">
        <ele>1545.2</ele>
        <time>2024-07-30T22:19:30.095Z</time>
      </trkpt>
      <trkpt lat="42.90637" lon="0.10714">
        <ele>1555.8</ele>
        <time>2024-07-30T22:19:55.025Z</time>
      </trkpt>
      <trkpt lat="42.90637" lon="0.1076">
        <ele>1559.3</ele>
        <time>2024-07-30T22:20:04.152Z</time>
      </trkpt>
      <trkpt lat="42.9064" lon="0.1084">
        <ele>1563.3</ele>
        <time>2024-07-30T22:20:18.214Z</time>
      </trkpt>
      <trkpt lat="42.90652" lon="0.10931">
        <ele>1570</ele>
        <time>2024-07-30T22:20:36.245Z</time>
      </trkpt>
      <trkpt lat="42.90664" lon="0.10985">
        <ele>1574.6</ele>
        <time>2024-07-30T22:20:47.737Z</time>
      </trkpt>
      <trkpt lat="42.9069" lon="0.11069">
        <ele>1581.2</ele>
        <time>2024-07-30T22:21:05.512Z</time>
      </trkpt>
      <trkpt lat="42.90723" lon="0.11202">
        <ele>1590.4</ele>
        <time>2024-07-30T22:21:32.011Z</time>
      </trkpt>
      <trkpt lat="42.90725" lon="0.11231">
        <ele>1591.5</ele>
        <time>2024-07-30T22:21:36.850Z</time>
      </trkpt>
      <trkpt lat="42.90727" lon="0.11336">
        <ele>1598.5</ele>
        <time>2024-07-30T22:21:56.776Z</time>
      </trkpt>
      <trkpt lat="42.90737" lon="0.11434">
        <ele>1604</ele>
        <time>2024-07-30T22:22:14.603Z</time>
      </trkpt>
      <trkpt lat="42.90739" lon="0.11476">
        <ele>1606.9</ele>
        <time>2024-07-30T22:22:22.673Z</time>
      </trkpt>
      <trkpt lat="42.90735" lon="0.11521">
        <ele>1611</ele>
        <time>2024-07-30T22:22:32.314Z</time>
      </trkpt>
      <trkpt lat="42.90722" lon="0.11586">
        <ele>1614.2</ele>
        <time>2024-07-30T22:22:44.012Z</time>
      </trkpt>
      <trkpt lat="42.90717" lon="0.116">
        <ele>1614.5</ele>
        <time>2024-07-30T22:22:46.396Z</time>
      </trkpt>
      <trkpt lat="42.90716" lon="0.11616">
        <ele>1616.1</ele>
        <time>2024-07-30T22:22:49.970Z</time>
      </trkpt>
      <trkpt lat="42.90718" lon="0.11622">
        <ele>1617.4</ele>
        <time>2024-07-30T22:22:52.442Z</time>
      </trkpt>
      <trkpt lat="42.90722" lon="0.11626">
        <ele>1619.1</ele>
        <time>2024-07-30T22:22:55.889Z</time>
      </trkpt>
      <trkpt lat="42.90728" lon="0.11627">
        <ele>1620.3</ele>
        <time>2024-07-30T22:22:58.215Z</time>
      </trkpt>
      <trkpt lat="42.90734" lon="0.11625">
        <ele>1621.1</ele>
        <time>2024-07-30T22:23:00.048Z</time>
      </trkpt>
      <trkpt lat="42.90763" lon="0.1159">
        <ele>1622.6</ele>
        <time>2024-07-30T22:23:08.469Z</time>
      </trkpt>
      <trkpt lat="42.90798" lon="0.11554">
        <ele>1624.8</ele>
        <time>2024-07-30T22:23:18.364Z</time>
      </trkpt>
      <trkpt lat="42.90804" lon="0.11552">
        <ele>1625.5</ele>
        <time>2024-07-30T22:23:20.094Z</time>
      </trkpt>
      <trkpt lat="42.90809" lon="0.11554">
        <ele>1626.5</ele>
        <time>2024-07-30T22:23:22.048Z</time>
      </trkpt>
      <trkpt lat="42.90813" lon="0.11558">
        <ele>1627.6</ele>
        <time>2024-07-30T22:23:24.140Z</time>
      </trkpt>
      <trkpt lat="42.90815" lon="0.11566">
        <ele>1628.8</ele>
        <time>2024-07-30T22:23:26.479Z</time>
      </trkpt>
      <trkpt lat="42.90815" lon="0.11575">
        <ele>1629.8</ele>
        <time>2024-07-30T22:23:28.601Z</time>
      </trkpt>
      <trkpt lat="42.90808" lon="0.11593">
        <ele>1631.2</ele>
        <time>2024-07-30T22:23:32.505Z</time>
      </trkpt>
      <trkpt lat="42.9079" lon="0.11625">
        <ele>1633.9</ele>
        <time>2024-07-30T22:23:40.169Z</time>
      </trkpt>
      <trkpt lat="42.90778" lon="0.11651">
        <ele>1635.7</ele>
        <time>2024-07-30T22:23:45.783Z</time>
      </trkpt>
      <trkpt lat="42.90756" lon="0.11709">
        <ele>1639.5</ele>
        <time>2024-07-30T22:23:57.693Z</time>
      </trkpt>
      <trkpt lat="42.90747" lon="0.11752">
        <ele>1642.5</ele>
        <time>2024-07-30T22:24:06.194Z</time>
      </trkpt>
      <trkpt lat="42.90733" lon="0.11837">
        <ele>1648</ele>
        <time>2024-07-30T22:24:22.452Z</time>
      </trkpt>
      <trkpt lat="42.90718" lon="0.11976">
        <ele>1658.1</ele>
        <time>2024-07-30T22:24:49.775Z</time>
      </trkpt>
      <trkpt lat="42.90709" lon="0.1209">
        <ele>1666.1</ele>
        <time>2024-07-30T22:25:11.850Z</time>
      </trkpt>
      <trkpt lat="42.90707" lon="0.12232">
        <ele>1675.5</ele>
        <time>2024-07-30T22:25:38.736Z</time>
      </trkpt>
      <trkpt lat="42.9071" lon="0.12305">
        <ele>1680.5</ele>
        <time>2024-07-30T22:25:52.720Z</time>
      </trkpt>
      <trkpt lat="42.90706" lon="0.12358">
        <ele>1683.5</ele>
        <time>2024-07-30T22:26:02.352Z</time>
      </trkpt>
      <trkpt lat="42.90704" lon="0.12444">
        <ele>1691</ele>
        <time>2024-07-30T22:26:20.362Z</time>
      </trkpt>
      <trkpt lat="42.90712" lon="0.12581">
        <ele>1700</ele>
        <time>2024-07-30T22:26:46.292Z</time>
      </trkpt>
      <trkpt lat="42.90712" lon="0.12619">
        <ele>1702.4</ele>
        <time>2024-07-30T22:26:53.384Z</time>
      </trkpt>
      <trkpt lat="42.90699" lon="0.12796">
        <ele>1712.8</ele>
        <time>2024-07-30T22:27:25.864Z</time>
      </trkpt>
      <trkpt lat="42.90695" lon="0.12887">
        <ele>1719.1</ele>
        <time>2024-07-30T22:27:43.361Z</time>
      </trkpt>
      <trkpt lat="42.90694" lon="0.1297">
        <ele>1725.6</ele>
        <time>2024-07-30T22:28:00.007Z</time>
      </trkpt>
      <trkpt lat="42.90687" lon="0.13002">
        <ele>1727.8</ele>
        <time>2024-07-30T22:28:06.319Z</time>
      </trkpt>
      <trkpt lat="42.90669" lon="0.13059">
        <ele>1729.3</ele>
        <time>2024-07-30T22:28:16.029Z</time>
      </trkpt>
      <trkpt lat="42.90663" lon="0.13093">
        <ele>1731.3</ele>
        <time>2024-07-30T22:28:22.377Z</time>
      </trkpt>
      <trkpt lat="42.90654" lon="0.13126">
        <ele>1731.8</ele>
        <time>2024-07-30T22:28:27.651Z</time>
      </trkpt>
      <trkpt lat="42.90646" lon="0.13143">
        <ele>1730.9</ele>
        <time>2024-07-30T22:28:30.145Z</time>
      </trkpt>
      <trkpt lat="42.90636" lon="0.13152">
        <ele>1729.8</ele>
        <time>2024-07-30T22:28:32.162Z</time>
      </trkpt>
      <trkpt lat="42.90607" lon="0.13162">
        <ele>1729.1</ele>
        <time>2024-07-30T22:28:37.526Z</time>
      </trkpt>
      <trkpt lat="42.906" lon="0.13163">
        <ele>1729.6</ele>
        <time>2024-07-30T22:28:39.229Z</time>
      </trkpt>
      <trkpt lat="42.9059" lon="0.13162">
        <ele>1730.1</ele>
        <time>2024-07-30T22:28:41.491Z</time>
      </trkpt>
      <trkpt lat="42.9058" lon="0.13156">
        <ele>1730</ele>
        <time>2024-07-30T22:28:43.536Z</time>
      </trkpt>
      <trkpt lat="42.9057" lon="0.13144">
        <ele>1729.7</ele>
        <time>2024-07-30T22:28:45.929Z</time>
      </trkpt>
      <trkpt lat="42.90561" lon="0.131">
        <ele>1732.4</ele>
        <time>2024-07-30T22:28:54.295Z</time>
      </trkpt>
      <trkpt lat="42.90546" lon="0.1306">
        <ele>1737.7</ele>
        <time>2024-07-30T22:29:05.266Z</time>
      </trkpt>
      <trkpt lat="42.90525" lon="0.13025">
        <ele>1740.4</ele>
        <time>2024-07-30T22:29:13.574Z</time>
      </trkpt>
      <trkpt lat="42.90507" lon="0.13014">
        <ele>1742.6</ele>
        <time>2024-07-30T22:29:19.062Z</time>
      </trkpt>
      <trkpt lat="42.90485" lon="0.13007">
        <ele>1745.3</ele>
        <time>2024-07-30T22:29:25.529Z</time>
      </trkpt>
      <trkpt lat="42.90478" lon="0.13003">
        <ele>1745.7</ele>
        <time>2024-07-30T22:29:27.257Z</time>
      </trkpt>
      <trkpt lat="42.90471" lon="0.12996">
        <ele>1746.2</ele>
        <time>2024-07-30T22:29:29.265Z</time>
      </trkpt>
      <trkpt lat="42.90459" lon="0.12977">
        <ele>1748.1</ele>
        <time>2024-07-30T22:29:34.234Z</time>
      </trkpt>
      <trkpt lat="42.90447" lon="0.12945">
        <ele>1749.4</ele>
        <time>2024-07-30T22:29:40.164Z</time>
      </trkpt>
      <trkpt lat="42.90436" lon="0.12902">
        <ele>1754.7</ele>
        <time>2024-07-30T22:29:51.194Z</time>
      </trkpt>
      <trkpt lat="42.90426" lon="0.12842">
        <ele>1755.3</ele>
        <time>2024-07-30T22:30:00.237Z</time>
      </trkpt>
      <trkpt lat="42.90422" lon="0.12758">
        <ele>1756.8</ele>
        <time>2024-07-30T22:30:13.046Z</time>
      </trkpt>
      <trkpt lat="42.90405" lon="0.12706">
        <ele>1760.1</ele>
        <time>2024-07-30T22:30:23.419Z</time>
      </trkpt>
      <trkpt lat="42.90411" lon="0.1267">
        <ele>1762.4</ele>
        <time>2024-07-30T22:30:30.282Z</time>
        <extensions>
          <visugpx:TrkExtension xmlns:visugpx="https://www.visugpx.com/editgpx/">
            <visugpx:node>2</visugpx:node>
            </visugpx:TrkExtension>
        </extensions>
      </trkpt>
      <trkpt lat="42.90413" lon="0.1266">
        <ele>1762.5</ele>
        <time>2024-07-30T22:30:31.804Z</time>
      </trkpt>
      <trkpt lat="42.9041" lon="0.12653">
        <ele>1763.1</ele>
        <time>2024-07-30T22:30:33.398Z</time>
      </trkpt>
      <trkpt lat="42.90404" lon="0.12645">
        <ele>1764.6</ele>
        <time>2024-07-30T22:30:36.388Z</time>
      </trkpt>
      <trkpt lat="42.90393" lon="0.12643">
        <ele>1767.6</ele>
        <time>2024-07-30T22:30:42.094Z</time>
      </trkpt>
      <trkpt lat="42.90386" lon="0.12646">
        <ele>1769.3</ele>
        <time>2024-07-30T22:30:45.315Z</time>
      </trkpt>
      <trkpt lat="42.90382" lon="0.12653">
        <ele>1770</ele>
        <time>2024-07-30T22:30:47.100Z</time>
      </trkpt>
      <trkpt lat="42.90372" lon="0.12686">
        <ele>1771</ele>
        <time>2024-07-30T22:30:52.782Z</time>
      </trkpt>
      <trkpt lat="42.90371" lon="0.127">
        <ele>1771.8</ele>
        <time>2024-07-30T22:30:55.331Z</time>
      </trkpt>
      <trkpt lat="42.90376" lon="0.12728">
        <ele>1772.6</ele>
        <time>2024-07-30T22:30:59.911Z</time>
      </trkpt>
      <trkpt lat="42.90376" lon="0.12736">
        <ele>1772.6</ele>
        <time>2024-07-30T22:31:01.039Z</time>
      </trkpt>
      <trkpt lat="42.90375" lon="0.12742">
        <ele>1773</ele>
        <time>2024-07-30T22:31:02.198Z</time>
      </trkpt>
      <trkpt lat="42.9036" lon="0.12776">
        <ele>1776.9</ele>
        <time>2024-07-30T22:31:10.972Z</time>
      </trkpt>
      <trkpt lat="42.90357" lon="0.12791">
        <ele>1780</ele>
        <time>2024-07-30T22:31:16.873Z</time>
      </trkpt>
      <trkpt lat="42.90357" lon="0.128">
        <ele>1780.8</ele>
        <time>2024-07-30T22:31:18.772Z</time>
      </trkpt>
      <trkpt lat="42.90364" lon="0.12831">
        <ele>1783</ele>
        <time>2024-07-30T22:31:24.961Z</time>
      </trkpt>
      <trkpt lat="42.90376" lon="0.1287">
        <ele>1785</ele>
        <time>2024-07-30T22:31:32.297Z</time>
      </trkpt>
      <trkpt lat="42.90378" lon="0.12883">
        <ele>1785.8</ele>
        <time>2024-07-30T22:31:34.743Z</time>
      </trkpt>
      <trkpt lat="42.90378" lon="0.12911">
        <ele>1788.1</ele>
        <time>2024-07-30T22:31:40.463Z</time>
      </trkpt>
      <trkpt lat="42.90373" lon="0.12944">
        <ele>1789.2</ele>
        <time>2024-07-30T22:31:45.935Z</time>
      </trkpt>
      <trkpt lat="42.90349" lon="0.13017">
        <ele>1794.7</ele>
        <time>2024-07-30T22:32:01.266Z</time>
      </trkpt>
      <trkpt lat="42.90336" lon="0.13067">
        <ele>1800.5</ele>
        <time>2024-07-30T22:32:13.662Z</time>
      </trkpt>
      <trkpt lat="42.90335" lon="0.13082">
        <ele>1801.2</ele>
        <time>2024-07-30T22:32:16.265Z</time>
      </trkpt>
      <trkpt lat="42.90341" lon="0.13117">
        <ele>1800.8</ele>
        <time>2024-07-30T22:32:21.105Z</time>
      </trkpt>
      <trkpt lat="42.90337" lon="0.13135">
        <ele>1800.3</ele>
        <time>2024-07-30T22:32:23.483Z</time>
      </trkpt>
      <trkpt lat="42.90329" lon="0.13149">
        <ele>1799.8</ele>
        <time>2024-07-30T22:32:25.713Z</time>
      </trkpt>
      <trkpt lat="42.90299" lon="0.13183">
        <ele>1799.7</ele>
        <time>2024-07-30T22:32:33.161Z</time>
      </trkpt>
      <trkpt lat="42.90276" lon="0.13218">
        <ele>1804.3</ele>
        <time>2024-07-30T22:32:43.533Z</time>
      </trkpt>
      <trkpt lat="42.90265" lon="0.13225">
        <ele>1807.8</ele>
        <time>2024-07-30T22:32:50.259Z</time>
      </trkpt>
      <trkpt lat="42.90249" lon="0.1323">
        <ele>1814.1</ele>
        <time>2024-07-30T22:33:03.709Z</time>
      </trkpt>
      <trkpt lat="42.90213" lon="0.13236">
        <ele>1818.7</ele>
        <time>2024-07-30T22:33:14.368Z</time>
      </trkpt>
      <trkpt lat="42.90203" lon="0.13239">
        <ele>1819.9</ele>
        <time>2024-07-30T22:33:17.275Z</time>
      </trkpt>
      <trkpt lat="42.90196" lon="0.13246">
        <ele>1820.8</ele>
        <time>2024-07-30T22:33:19.624Z</time>
      </trkpt>
      <trkpt lat="42.90193" lon="0.13258">
        <ele>1822.3</ele>
        <time>2024-07-30T22:33:22.725Z</time>
      </trkpt>
      <trkpt lat="42.90194" lon="0.13272">
        <ele>1823.5</ele>
        <time>2024-07-30T22:33:25.643Z</time>
      </trkpt>
      <trkpt lat="42.90197" lon="0.13281">
        <ele>1824.2</ele>
        <time>2024-07-30T22:33:27.556Z</time>
      </trkpt>
      <trkpt lat="42.90217" lon="0.1333">
        <ele>1828</ele>
        <time>2024-07-30T22:33:38.254Z</time>
      </trkpt>
      <trkpt lat="42.90221" lon="0.13349">
        <ele>1829.1</ele>
        <time>2024-07-30T22:33:41.817Z</time>
      </trkpt>
      <trkpt lat="42.90223" lon="0.13375">
        <ele>1830.9</ele>
        <time>2024-07-30T22:33:46.828Z</time>
      </trkpt>
      <trkpt lat="42.90227" lon="0.13389">
        <ele>1831.7</ele>
        <time>2024-07-30T22:33:49.507Z</time>
      </trkpt>
      <trkpt lat="42.90233" lon="0.13398">
        <ele>1832.7</ele>
        <time>2024-07-30T22:33:51.993Z</time>
      </trkpt>
      <trkpt lat="42.90238" lon="0.13402">
        <ele>1833</ele>
        <time>2024-07-30T22:33:53.308Z</time>
      </trkpt>
      <trkpt lat="42.90259" lon="0.13414">
        <ele>1834</ele>
        <time>2024-07-30T22:33:58.345Z</time>
      </trkpt>
      <trkpt lat="42.90269" lon="0.13431">
        <ele>1836</ele>
        <time>2024-07-30T22:34:03.012Z</time>
      </trkpt>
      <trkpt lat="42.90276" lon="0.13451">
        <ele>1838</ele>
        <time>2024-07-30T22:34:07.721Z</time>
      </trkpt>
      <trkpt lat="42.90279" lon="0.13468">
        <ele>1839.3</ele>
        <time>2024-07-30T22:34:11.162Z</time>
      </trkpt>
      <trkpt lat="42.90272" lon="0.13508">
        <ele>1843.5</ele>
        <time>2024-07-30T22:34:20.430Z</time>
      </trkpt>
      <trkpt lat="42.90273" lon="0.13525">
        <ele>1844.5</ele>
        <time>2024-07-30T22:34:23.547Z</time>
      </trkpt>
      <trkpt lat="42.90284" lon="0.1357">
        <ele>1847.2</ele>
        <time>2024-07-30T22:34:32.147Z</time>
      </trkpt>
      <trkpt lat="42.90287" lon="0.13597">
        <ele>1850.5</ele>
        <time>2024-07-30T22:34:38.914Z</time>
      </trkpt>
      <trkpt lat="42.90292" lon="0.13607">
        <ele>1851.7</ele>
        <time>2024-07-30T22:34:41.602Z</time>
      </trkpt>
      <trkpt lat="42.90297" lon="0.1361">
        <ele>1852.1</ele>
        <time>2024-07-30T22:34:42.933Z</time>
      </trkpt>
      <trkpt lat="42.90313" lon="0.13612">
        <ele>1852.2</ele>
        <time>2024-07-30T22:34:46.086Z</time>
      </trkpt>
      <trkpt lat="42.90329" lon="0.13619">
        <ele>1853.2</ele>
        <time>2024-07-30T22:34:49.999Z</time>
      </trkpt>
      <trkpt lat="42.90348" lon="0.13636">
        <ele>1854.6</ele>
        <time>2024-07-30T22:34:55.326Z</time>
      </trkpt>
      <trkpt lat="42.90357" lon="0.13651">
        <ele>1856.1</ele>
        <time>2024-07-30T22:34:59.196Z</time>
      </trkpt>
      <trkpt lat="42.90364" lon="0.13676">
        <ele>1859</ele>
        <time>2024-07-30T22:35:05.419Z</time>
      </trkpt>
      <trkpt lat="42.90368" lon="0.13684">
        <ele>1860</ele>
        <time>2024-07-30T22:35:07.614Z</time>
      </trkpt>
      <trkpt lat="42.90373" lon="0.1369">
        <ele>1860.7</ele>
        <time>2024-07-30T22:35:09.426Z</time>
      </trkpt>
      <trkpt lat="42.9038" lon="0.13695">
        <ele>1861.4</ele>
        <time>2024-07-30T22:35:11.455Z</time>
      </trkpt>
      <trkpt lat="42.90409" lon="0.13708">
        <ele>1864.1</ele>
        <time>2024-07-30T22:35:19.292Z</time>
      </trkpt>
      <trkpt lat="42.90432" lon="0.13714">
        <ele>1866.5</ele>
        <time>2024-07-30T22:35:25.604Z</time>
      </trkpt>
      <trkpt lat="42.90473" lon="0.1371">
        <ele>1869.4</ele>
        <time>2024-07-30T22:35:35.535Z</time>
      </trkpt>
      <trkpt lat="42.90486" lon="0.13713">
        <ele>1869.4</ele>
        <time>2024-07-30T22:35:38.073Z</time>
      </trkpt>
      <trkpt lat="42.90492" lon="0.13717">
        <ele>1870.1</ele>
        <time>2024-07-30T22:35:39.888Z</time>
      </trkpt>
      <trkpt lat="42.90498" lon="0.13722">
        <ele>1871.1</ele>
        <time>2024-07-30T22:35:42.073Z</time>
      </trkpt>
      <trkpt lat="42.90516" lon="0.13744">
        <ele>1872.1</ele>
        <time>2024-07-30T22:35:47.374Z</time>
      </trkpt>
      <trkpt lat="42.90538" lon="0.13788">
        <ele>1877.8</ele>
        <time>2024-07-30T22:35:59.676Z</time>
      </trkpt>
      <trkpt lat="42.90544" lon="0.13797">
        <ele>1879.6</ele>
        <time>2024-07-30T22:36:03.152Z</time>
      </trkpt>
      <trkpt lat="42.90558" lon="0.13812">
        <ele>1883</ele>
        <time>2024-07-30T22:36:09.804Z</time>
      </trkpt>
      <trkpt lat="42.90578" lon="0.13828">
        <ele>1885.4</ele>
        <time>2024-07-30T22:36:16.076Z</time>
      </trkpt>
      <trkpt lat="42.90604" lon="0.13841">
        <ele>1885.5</ele>
        <time>2024-07-30T22:36:21.466Z</time>
      </trkpt>
      <trkpt lat="42.9063" lon="0.13866">
        <ele>1889.8</ele>
        <time>2024-07-30T22:36:31.101Z</time>
      </trkpt>
      <trkpt lat="42.90642" lon="0.13871">
        <ele>1891.6</ele>
        <time>2024-07-30T22:36:35.018Z</time>
      </trkpt>
      <trkpt lat="42.90651" lon="0.13872">
        <ele>1893</ele>
        <time>2024-07-30T22:36:37.961Z</time>
      </trkpt>
      <trkpt lat="42.90667" lon="0.13869">
        <ele>1893.9</ele>
        <time>2024-07-30T22:36:41.675Z</time>
      </trkpt>
      <trkpt lat="42.90695" lon="0.13858">
        <ele>1895.9</ele>
        <time>2024-07-30T22:36:48.669Z</time>
      </trkpt>
      <trkpt lat="42.90712" lon="0.13857">
        <ele>1896.9</ele>
        <time>2024-07-30T22:36:52.621Z</time>
      </trkpt>
      <trkpt lat="42.90729" lon="0.1386">
        <ele>1899.6</ele>
        <time>2024-07-30T22:36:58.260Z</time>
      </trkpt>
      <trkpt lat="42.90741" lon="0.13857">
        <ele>1900.6</ele>
        <time>2024-07-30T22:37:01.323Z</time>
      </trkpt>
      <trkpt lat="42.90759" lon="0.13842">
        <ele>1901.5</ele>
        <time>2024-07-30T22:37:05.970Z</time>
      </trkpt>
      <trkpt lat="42.90776" lon="0.13819">
        <ele>1902.2</ele>
        <time>2024-07-30T22:37:11.020Z</time>
      </trkpt>
      <trkpt lat="42.90788" lon="0.13808">
        <ele>1904.3</ele>
        <time>2024-07-30T22:37:15.564Z</time>
      </trkpt>
      <trkpt lat="42.90829" lon="0.13783">
        <ele>1909.6</ele>
        <time>2024-07-30T22:37:28.351Z</time>
      </trkpt>
      <trkpt lat="42.90841" lon="0.1378">
        <ele>1910.8</ele>
        <time>2024-07-30T22:37:31.592Z</time>
      </trkpt>
      <trkpt lat="42.90887" lon="0.13781">
        <ele>1915.3</ele>
        <time>2024-07-30T22:37:43.793Z</time>
      </trkpt>
      <trkpt lat="42.90924" lon="0.13794">
        <ele>1919</ele>
        <time>2024-07-30T22:37:53.891Z</time>
      </trkpt>
      <trkpt lat="42.90945" lon="0.13799">
        <ele>1921.2</ele>
        <time>2024-07-30T22:37:59.652Z</time>
      </trkpt>
      <trkpt lat="42.90997" lon="0.13803">
        <ele>1924.9</ele>
        <time>2024-07-30T22:38:12.255Z</time>
      </trkpt>
      <trkpt lat="42.91016" lon="0.13806">
        <ele>1927.3</ele>
        <time>2024-07-30T22:38:17.849Z</time>
      </trkpt>
      <trkpt lat="42.91044" lon="0.13804">
        <ele>1928.6</ele>
        <time>2024-07-30T22:38:24.101Z</time>
      </trkpt>
      <trkpt lat="42.91058" lon="0.13806">
        <ele>1929.4</ele>
        <time>2024-07-30T22:38:27.350Z</time>
      </trkpt>
      <trkpt lat="42.91065" lon="0.13811">
        <ele>1929</ele>
        <time>2024-07-30T22:38:28.681Z</time>
      </trkpt>
      <trkpt lat="42.9107" lon="0.13818">
        <ele>1930</ele>
        <time>2024-07-30T22:38:30.886Z</time>
      </trkpt>
      <trkpt lat="42.91087" lon="0.1385">
        <ele>1937.3</ele>
        <time>2024-07-30T22:38:44.697Z</time>
      </trkpt>
      <trkpt lat="42.91092" lon="0.13856">
        <ele>1939.2</ele>
        <time>2024-07-30T22:38:48.341Z</time>
      </trkpt>
      <trkpt lat="42.91097" lon="0.13858">
        <ele>1939.4</ele>
        <time>2024-07-30T22:38:49.473Z</time>
      </trkpt>
      <trkpt lat="42.91101" lon="0.13857">
        <ele>1938.7</ele>
        <time>2024-07-30T22:38:50.158Z</time>
      </trkpt>
      <trkpt lat="42.91109" lon="0.13849">
        <ele>1935.2</ele>
        <time>2024-07-30T22:38:51.829Z</time>
      </trkpt>
      <trkpt lat="42.91122" lon="0.1383">
        <ele>1935</ele>
        <time>2024-07-30T22:38:55.379Z</time>
      </trkpt>
      <trkpt lat="42.91144" lon="0.13803">
        <ele>1936.3</ele>
        <time>2024-07-30T22:39:01.924Z</time>
      </trkpt>
      <trkpt lat="42.91157" lon="0.1379">
        <ele>1936.5</ele>
        <time>2024-07-30T22:39:05.148Z</time>
      </trkpt>
      <trkpt lat="42.91164" lon="0.13787">
        <ele>1938</ele>
        <time>2024-07-30T22:39:08.038Z</time>
      </trkpt>
      <trkpt lat="42.91182" lon="0.13784">
        <ele>1938.9</ele>
        <time>2024-07-30T22:39:12.125Z</time>
      </trkpt>
      <trkpt lat="42.91201" lon="0.13787">
        <ele>1941.8</ele>
        <time>2024-07-30T22:39:18.280Z</time>
      </trkpt>
      <trkpt lat="42.91221" lon="0.13785">
        <ele>1942.3</ele>
        <time>2024-07-30T22:39:22.453Z</time>
      </trkpt>
      <trkpt lat="42.91242" lon="0.13775">
        <ele>1943</ele>
        <time>2024-07-30T22:39:27.180Z</time>
      </trkpt>
      <trkpt lat="42.91251" lon="0.13768">
        <ele>1942.9</ele>
        <time>2024-07-30T22:39:29.116Z</time>
      </trkpt>
      <trkpt lat="42.91258" lon="0.13762">
        <ele>1943.5</ele>
        <time>2024-07-30T22:39:31.126Z</time>
      </trkpt>
      <trkpt lat="42.9127" lon="0.13744">
        <ele>1942.3</ele>
        <time>2024-07-30T22:39:34.129Z</time>
      </trkpt>
      <trkpt lat="42.91284" lon="0.13712">
        <ele>1939.6</ele>
        <time>2024-07-30T22:39:38.728Z</time>
      </trkpt>
      <trkpt lat="42.91294" lon="0.13694">
        <ele>1938.5</ele>
        <time>2024-07-30T22:39:41.516Z</time>
      </trkpt>
      <trkpt lat="42.91306" lon="0.13682">
        <ele>1940.1</ele>
        <time>2024-07-30T22:39:45.597Z</time>
      </trkpt>
      <trkpt lat="42.91315" lon="0.13678">
        <ele>1940.1</ele>
        <time>2024-07-30T22:39:47.419Z</time>
      </trkpt>
      <trkpt lat="42.91327" lon="0.13678">
        <ele>1940.4</ele>
        <time>2024-07-30T22:39:49.918Z</time>
      </trkpt>
      <trkpt lat="42.91332" lon="0.13681">
        <ele>1941</ele>
        <time>2024-07-30T22:39:51.428Z</time>
      </trkpt>
      <trkpt lat="42.91335" lon="0.13685">
        <ele>1941.5</ele>
        <time>2024-07-30T22:39:52.628Z</time>
      </trkpt>
      <trkpt lat="42.91339" lon="0.13695">
        <ele>1942.7</ele>
        <time>2024-07-30T22:39:55.237Z</time>
      </trkpt>
      <trkpt lat="42.9134" lon="0.13703">
        <ele>1944.5</ele>
        <time>2024-07-30T22:39:58.735Z</time>
      </trkpt>
      <trkpt lat="42.91337" lon="0.13714">
        <ele>1947.1</ele>
        <time>2024-07-30T22:40:03.788Z</time>
      </trkpt>
      <trkpt lat="42.91328" lon="0.13723">
        <ele>1949</ele>
        <time>2024-07-30T22:40:07.639Z</time>
      </trkpt>
      <trkpt lat="42.91303" lon="0.13737">
        <ele>1952.5</ele>
        <time>2024-07-30T22:40:15.658Z</time>
      </trkpt>
      <trkpt lat="42.91297" lon="0.13742">
        <ele>1952.3</ele>
        <time>2024-07-30T22:40:16.899Z</time>
      </trkpt>
      <trkpt lat="42.9129" lon="0.13751">
        <ele>1952.7</ele>
        <time>2024-07-30T22:40:19.011Z</time>
      </trkpt>
      <trkpt lat="42.91262" lon="0.13802">
        <ele>1960.5</ele>
        <time>2024-07-30T22:40:34.929Z</time>
      </trkpt>
      <trkpt lat="42.91248" lon="0.13817">
        <ele>1962.5</ele>
        <time>2024-07-30T22:40:39.896Z</time>
      </trkpt>
      <trkpt lat="42.91238" lon="0.13824">
        <ele>1963.7</ele>
        <time>2024-07-30T22:40:42.971Z</time>
      </trkpt>
      <trkpt lat="42.91218" lon="0.13834">
        <ele>1965.2</ele>
        <time>2024-07-30T22:40:48.115Z</time>
      </trkpt>
      <trkpt lat="42.91191" lon="0.13841">
        <ele>1966.9</ele>
        <time>2024-07-30T22:40:54.564Z</time>
      </trkpt>
      <trkpt lat="42.91175" lon="0.1385">
        <ele>1967.5</ele>
        <time>2024-07-30T22:40:58.279Z</time>
      </trkpt>
      <trkpt lat="42.91165" lon="0.13864">
        <ele>1970.1</ele>
        <time>2024-07-30T22:41:03.440Z</time>
      </trkpt>
      <trkpt lat="42.91146" lon="0.13901">
        <ele>1973.2</ele>
        <time>2024-07-30T22:41:12.091Z</time>
      </trkpt>
      <trkpt lat="42.91132" lon="0.13936">
        <ele>1979.1</ele>
        <time>2024-07-30T22:41:23.485Z</time>
      </trkpt>
      <trkpt lat="42.91124" lon="0.13947">
        <ele>1980.3</ele>
        <time>2024-07-30T22:41:26.580Z</time>
      </trkpt>
      <trkpt lat="42.91119" lon="0.1395">
        <ele>1980.1</ele>
        <time>2024-07-30T22:41:27.521Z</time>
      </trkpt>
      <trkpt lat="42.91113" lon="0.13951">
        <ele>1978.6</ele>
        <time>2024-07-30T22:41:28.540Z</time>
      </trkpt>
      <trkpt lat="42.91095" lon="0.1395">
        <ele>1980.9</ele>
        <time>2024-07-30T22:41:33.850Z</time>
      </trkpt>
      <trkpt lat="42.9105" lon="0.13938">
        <ele>1984.7</ele>
        <time>2024-07-30T22:41:45.400Z</time>
      </trkpt>
      <trkpt lat="42.9102" lon="0.13933">
        <ele>1987.4</ele>
        <time>2024-07-30T22:41:53.183Z</time>
      </trkpt>
      <trkpt lat="42.90986" lon="0.13937">
        <ele>1992.5</ele>
        <time>2024-07-30T22:42:04.077Z</time>
      </trkpt>
      <trkpt lat="42.90942" lon="0.13933">
        <ele>1995.1</ele>
        <time>2024-07-30T22:42:14.326Z</time>
      </trkpt>
      <trkpt lat="42.90921" lon="0.13937">
        <ele>1999</ele>
        <time>2024-07-30T22:42:22.036Z</time>
      </trkpt>
      <trkpt lat="42.90903" lon="0.13945">
        <ele>2001.4</ele>
        <time>2024-07-30T22:42:27.599Z</time>
      </trkpt>
      <trkpt lat="42.90879" lon="0.13964">
        <ele>2004.6</ele>
        <time>2024-07-30T22:42:35.424Z</time>
      </trkpt>
      <trkpt lat="42.90848" lon="0.14004">
        <ele>2009.3</ele>
        <time>2024-07-30T22:42:47.237Z</time>
      </trkpt>
      <trkpt lat="42.90812" lon="0.14034">
        <ele>2012.4</ele>
        <time>2024-07-30T22:42:57.528Z</time>
      </trkpt>
      <trkpt lat="42.90795" lon="0.1406">
        <ele>2016</ele>
        <time>2024-07-30T22:43:05.428Z</time>
      </trkpt>
      <trkpt lat="42.90763" lon="0.141">
        <ele>2020.5</ele>
        <time>2024-07-30T22:43:17.174Z</time>
      </trkpt>
      <trkpt lat="42.90746" lon="0.14128">
        <ele>2022.3</ele>
        <time>2024-07-30T22:43:23.545Z</time>
      </trkpt>
      <trkpt lat="42.90737" lon="0.14152">
        <ele>2024.3</ele>
        <time>2024-07-30T22:43:28.846Z</time>
      </trkpt>
      <trkpt lat="42.90724" lon="0.14202">
        <ele>2027.1</ele>
        <time>2024-07-30T22:43:38.282Z</time>
      </trkpt>
      <trkpt lat="42.90719" lon="0.14236">
        <ele>2028</ele>
        <time>2024-07-30T22:43:43.749Z</time>
      </trkpt>
      <trkpt lat="42.90719" lon="0.14247">
        <ele>2028.7</ele>
        <time>2024-07-30T22:43:45.807Z</time>
      </trkpt>
      <trkpt lat="42.90722" lon="0.14263">
        <ele>2029.9</ele>
        <time>2024-07-30T22:43:49.030Z</time>
      </trkpt>
      <trkpt lat="42.90739" lon="0.14303">
        <ele>2035.2</ele>
        <time>2024-07-30T22:44:00.129Z</time>
      </trkpt>
      <trkpt lat="42.90746" lon="0.14328">
        <ele>2037.9</ele>
        <time>2024-07-30T22:44:06.123Z</time>
      </trkpt>
      <trkpt lat="42.90749" lon="0.14359">
        <ele>2041.4</ele>
        <time>2024-07-30T22:44:13.526Z</time>
      </trkpt>
      <trkpt lat="42.90748" lon="0.14369">
        <ele>2042.7</ele>
        <time>2024-07-30T22:44:16.132Z</time>
      </trkpt>
      <trkpt lat="42.90743" lon="0.14384">
        <ele>2044.4</ele>
        <time>2024-07-30T22:44:19.865Z</time>
      </trkpt>
      <trkpt lat="42.90739" lon="0.1439">
        <ele>2045</ele>
        <time>2024-07-30T22:44:21.459Z</time>
      </trkpt>
      <trkpt lat="42.90722" lon="0.14402">
        <ele>2046.1</ele>
        <time>2024-07-30T22:44:25.885Z</time>
      </trkpt>
      <trkpt lat="42.90698" lon="0.14424">
        <ele>2051</ele>
        <time>2024-07-30T22:44:35.833Z</time>
      </trkpt>
      <trkpt lat="42.9068" lon="0.14435">
        <ele>2053.5</ele>
        <time>2024-07-30T22:44:41.628Z</time>
      </trkpt>
      <trkpt lat="42.90643" lon="0.14454">
        <ele>2055.7</ele>
        <time>2024-07-30T22:44:50.716Z</time>
      </trkpt>
      <trkpt lat="42.90633" lon="0.14463">
        <ele>2056.1</ele>
        <time>2024-07-30T22:44:53.277Z</time>
      </trkpt>
      <trkpt lat="42.90623" lon="0.14479">
        <ele>2056.9</ele>
        <time>2024-07-30T22:44:56.775Z</time>
      </trkpt>
      <trkpt lat="42.90608" lon="0.14516">
        <ele>2058.7</ele>
        <time>2024-07-30T22:45:03.954Z</time>
      </trkpt>
      <trkpt lat="42.90593" lon="0.14571">
        <ele>2065.8</ele>
        <time>2024-07-30T22:45:18.507Z</time>
      </trkpt>
      <trkpt lat="42.9058" lon="0.146">
        <ele>2070.9</ele>
        <time>2024-07-30T22:45:28.328Z</time>
      </trkpt>
      <trkpt lat="42.90565" lon="0.14624">
        <ele>2074.7</ele>
        <time>2024-07-30T22:45:36.130Z</time>
      </trkpt>
      <trkpt lat="42.90552" lon="0.14638">
        <ele>2076</ele>
        <time>2024-07-30T22:45:40.239Z</time>
      </trkpt>
      <trkpt lat="42.90545" lon="0.14642">
        <ele>2076</ele>
        <time>2024-07-30T22:45:41.700Z</time>
      </trkpt>
      <trkpt lat="42.90525" lon="0.14649">
        <ele>2074.1</ele>
        <time>2024-07-30T22:45:45.178Z</time>
      </trkpt>
      <trkpt lat="42.9052" lon="0.14653">
        <ele>2074.4</ele>
        <time>2024-07-30T22:45:46.494Z</time>
      </trkpt>
      <trkpt lat="42.90517" lon="0.14662">
        <ele>2076.5</ele>
        <time>2024-07-30T22:45:50.534Z</time>
      </trkpt>
      <trkpt lat="42.90518" lon="0.14666">
        <ele>2077.8</ele>
        <time>2024-07-30T22:45:53.429Z</time>
      </trkpt>
      <trkpt lat="42.90521" lon="0.14669">
        <ele>2079.2</ele>
        <time>2024-07-30T22:45:56.390Z</time>
      </trkpt>
      <trkpt lat="42.90529" lon="0.1467">
        <ele>2080.6</ele>
        <time>2024-07-30T22:45:59.205Z</time>
      </trkpt>
      <trkpt lat="42.90553" lon="0.1466">
        <ele>2083.2</ele>
        <time>2024-07-30T22:46:05.996Z</time>
      </trkpt>
      <trkpt lat="42.90573" lon="0.14648">
        <ele>2086.7</ele>
        <time>2024-07-30T22:46:13.255Z</time>
      </trkpt>
      <trkpt lat="42.90601" lon="0.14613">
        <ele>2088.7</ele>
        <time>2024-07-30T22:46:21.898Z</time>
      </trkpt>
      <trkpt lat="42.90615" lon="0.14598">
        <ele>2090.4</ele>
        <time>2024-07-30T22:46:26.580Z</time>
      </trkpt>
      <trkpt lat="42.90621" lon="0.14592">
        <ele>2090.7</ele>
        <time>2024-07-30T22:46:28.206Z</time>
      </trkpt>
      <trkpt lat="42.90655" lon="0.14567">
        <ele>2097.2</ele>
        <time>2024-07-30T22:46:41.436Z</time>
      </trkpt>
      <trkpt lat="42.90666" lon="0.14555">
        <ele>2098.5</ele>
        <time>2024-07-30T22:46:45.100Z</time>
      </trkpt>
      <trkpt lat="42.90682" lon="0.14531">
        <ele>2098.8</ele>
        <time>2024-07-30T22:46:49.859Z</time>
      </trkpt>
      <trkpt lat="42.90687" lon="0.14526">
        <ele>2098.9</ele>
        <time>2024-07-30T22:46:51.114Z</time>
      </trkpt>
      <trkpt lat="42.90699" lon="0.1452">
        <ele>2101</ele>
        <time>2024-07-30T22:46:55.426Z</time>
      </trkpt>
      <trkpt lat="42.90721" lon="0.14515">
        <ele>2104.5</ele>
        <time>2024-07-30T22:47:02.747Z</time>
      </trkpt>
      <trkpt lat="42.90746" lon="0.14513">
        <ele>2108.4</ele>
        <time>2024-07-30T22:47:10.930Z</time>
      </trkpt>
      <trkpt lat="42.90758" lon="0.14515">
        <ele>2110.2</ele>
        <time>2024-07-30T22:47:14.781Z</time>
      </trkpt>
      <trkpt lat="42.90772" lon="0.1452">
        <ele>2112.7</ele>
        <time>2024-07-30T22:47:19.823Z</time>
      </trkpt>
      <trkpt lat="42.90783" lon="0.14521">
        <ele>2113.7</ele>
        <time>2024-07-30T22:47:22.675Z</time>
      </trkpt>
      <trkpt lat="42.90808" lon="0.14513">
        <ele>2114</ele>
        <time>2024-07-30T22:47:27.801Z</time>
      </trkpt>
      <trkpt lat="42.90819" lon="0.14512">
        <ele>2114.5</ele>
        <time>2024-07-30T22:47:30.252Z</time>
      </trkpt>
      <trkpt lat="42.90827" lon="0.14516">
        <ele>2115.2</ele>
        <time>2024-07-30T22:47:32.392Z</time>
      </trkpt>
      <trkpt lat="42.90837" lon="0.14527">
        <ele>2116.1</ele>
        <time>2024-07-30T22:47:35.490Z</time>
      </trkpt>
      <trkpt lat="42.9085" lon="0.14552">
        <ele>2117.9</ele>
        <time>2024-07-30T22:47:41.094Z</time>
        <extensions>
          <visugpx:TrkExtension xmlns:visugpx="https://www.visugpx.com/editgpx/">
            <visugpx:node>3</visugpx:node>
            </visugpx:TrkExtension>
        </extensions>
      </trkpt>
    </trkseg>
  </trk>
</gpx>